GW0268 Weather Reports


Display with metric or nautical units.
time (UTC)temp
F
wind
direction
speed
MPH
gust
MPH
rain 1hr
in
rain 24hr
in
rain mn
in
humidity
%
barometer
mb
20260506024119 48 337 0.0 0.0 0.01 0.14 0.14 36 992.6
20260506023116 48 337 0.0 0.0 0.01 0.14 0.14 36 992.9
20260506022215 48 337 0.0 0.0 0.02 0.14 0.14 36 993.2
20260506021219 48 337 0.0 0.0 0.02 0.14 0.14 36 992.9
20260506020218 48 315 0.0 0.0 0.02 0.14 0.14 36 992.9
20260506015315 48 22 0.0 0.0 0.02 0.14 0.14 36 992.9
20260506014316 48 22 0.0 0.0 0.01 0.13 0.13 36 992.9
20260506012317 49 12 0.0 0.0 0.00 0.12 0.12 35 992.9
20260506010415 49 2 0.0 2.0 0.02 0.12 0.12 36 992.9
20260506005417 49 350 0.0 0.0 0.03 0.12 0.12 36 992.9
20260506004416 50 338 0.0 0.0 0.04 0.12 0.12 35 992.6
20260506003417 51 337 0.0 0.0 0.04 0.12 0.12 35 992.9
20260506002417 51 13 0.0 5.0 0.04 0.12 0.12 35 992.6
20260506001417 52 14 0.0 3.0 0.03 0.11 0.11 35 992.6
20260506000418 54 40 3.0 13.0 0.02 0.10 0.10 36 992.2
20260505235417 58 345 0.0 1.0 0.01 0.09 0.09 36 992.2
20260505234416 60 327 1.0 7.0 0.00 0.08 0.08 36 991.5
20260505233418 61 8 0.0 5.0 0.00 0.08 0.08 37 991.5
20260505232419 62 342 0.0 4.0 0.00 0.08 0.08 36 991.5
20260505231415 63 5 0.0 4.0 0.00 0.08 0.08 37 991.5
20260505225419 63 343 0.0 0.0 0.00 0.08 0.08 41 990.8
20260505224515 63 337 0.0 0.0 0.00 0.08 0.08 42 990.4
20260505223518 63 354 0.0 0.0 0.00 0.08 0.08 37 990.4
20260505222518 63 21 0.0 2.0 0.00 0.08 0.08 36 990.1
20260505221616 64 46 0.0 2.0 0.00 0.08 0.08 37 989.8
20260505220617 64 71 1.0 2.0 0.00 0.08 0.08 37 989.8
20260505214617 66 90 1.0 2.0 0.00 0.08 0.08 42 989.4
20260505213619 65 90 1.0 2.0 0.01 0.08 0.08 42 989.1
20260505211617 67 315 0.0 0.0 0.04 0.08 0.08 37 989.1
20260505210617 65 315 0.0 0.0 0.04 0.08 0.08 37 989.1
20260505205615 65 315 0.0 0.0 0.04 0.08 0.08 38 989.1
20260505204616 63 315 0.0 0.0 0.04 0.08 0.08 37 989.1
20260505203617 64 308 0.0 3.0 0.03 0.07 0.07 37 989.8
20260505202618 67 302 3.0 12.0 0.01 0.05 0.05 41 989.8
20260505201715 67 157 1.0 3.0 0.00 0.04 0.04 42 989.4
20260505200715 67 157 2.0 6.0 0.00 0.04 0.04 42 989.4
20260505195716 68 170 5.0 9.0 0.00 0.04 0.04 43 989.4
20260505194717 69 202 5.0 7.0 0.00 0.04 0.04 43 989.8
20260505192816 71 203 5.0 8.0 0.00 0.04 0.04 44 989.8
20260505191818 71 232 6.0 10.0 0.00 0.04 0.04 43 989.1
20260505190916 70 247 4.0 8.0 0.00 0.04 0.04 42 989.4
20260505185917 70 247 6.0 12.0 0.00 0.04 0.04 43 989.4
20260505184917 69 239 4.0 6.0 0.01 0.04 0.04 42 989.8
20260505184016 68 243 9.0 12.0 0.02 0.04 0.04 42 989.4
20260505183016 67 209 3.0 6.0 0.04 0.04 0.04 42 989.1
20260505182115 66 251 6.0 8.0 0.04 0.04 0.04 42 989.1
20260505181118 64 253 4.0 7.0 0.04 0.04 0.04 41 989.1
20260505180216 63 247 1.0 6.0 0.04 0.04 0.04 42 989.1
20260505175217 63 294 0.0 4.0 0.04 0.04 0.03 42 990.3
20260505174217 65 252 9.0 15.0 0.02 0.02 0.02 43 990.2
20260505173218 71 246 6.0 9.0 0.00 0.00 0.00 43 989.5
20260505172217 71 226 9.0 13.0 0.00 0.00 0.00 43 989.2
20260505171315 72 207 6.0 11.0 0.00 0.00 0.00 43 989.4
20260505170318 72 207 8.0 11.0 0.00 0.00 0.00 43 989.4
20260505165316 71 230 7.0 13.0 0.00 0.00 0.00 43 989.4
20260505164415 71 231 8.0 14.0 0.00 0.00 0.00 43 989.8
20260505163417 71 233 13.0 19.0 0.00 0.00 0.00 43 989.8
20260505162417 72 239 10.0 17.0 0.00 0.00 0.00 43 989.8
20260505161417 72 238 8.0 13.0 0.00 0.00 0.00 43 989.1
20260505160417 72 218 6.0 8.0 0.00 0.00 0.00 43 989.1
20260505152518 71 240 13.0 20.0 0.00 0.00 0.00 43 989.4
20260505151616 71 233 12.0 19.0 0.00 0.00 0.00 43 989.1
20260505140618 71 220 8.0 12.0 0.00 0.00 0.00 43 988.7
20260505124817 68 192 11.0 14.0 0.00 0.00 0.00 43 988.7
20260505122816 67 191 7.0 11.0 0.00 0.00 0.00 42 988.4
20260505121815 64 191 5.0 9.0 0.00 0.00 0.00 42 988.7
20260505120815 62 182 8.0 10.0 0.00 0.00 0.00 41 988.7
20260505114818 62 197 7.0 9.0 0.00 0.00 0.00 40 988.4
20260505112817 60 172 7.0 10.0 0.00 0.00 0.00 40 988.4
20260505111816 60 200 5.0 9.0 0.00 0.00 0.00 40 988.4
20260505110817 60 187 5.0 8.0 0.00 0.00 0.00 40 988.4
20260505101020 61 189 4.0 8.0 0.00 0.00 0.00 41 987.7
20260505100018 62 183 4.0 7.0 0.00 0.00 0.00 41 987.7
20260505095015 62 203 6.0 11.0 0.00 0.00 0.00 41 987.7
20260505094017 63 205 10.0 15.0 0.00 0.00 0.00 41 987.4
20260505093016 63 198 9.0 14.0 0.00 0.00 0.00 41 987.4
20260505091018 60 196 5.0 9.0 0.00 0.00 0.00 41 987.7
20260505090015 60 200 4.0 6.0 0.00 0.00 0.00 41 987.7
20260505085018 60 197 4.0 7.0 0.00 0.00 0.00 41 987.7
20260505084017 60 201 4.0 7.0 0.00 0.00 0.00 41 987.7
20260505083018 60 202 5.0 8.0 0.00 0.00 0.00 40 987.7
20260505082018 60 197 5.0 7.0 0.00 0.00 0.00 40 987.4
20260505081016 61 189 4.0 8.0 0.00 0.00 0.00 40 987.7
20260505080017 61 200 5.0 9.0 0.00 0.00 0.00 40 987.7
20260505075019 61 202 3.0 6.0 0.00 0.00 0.00 40 987.7
20260505074017 60 202 2.0 4.0 0.00 0.00 0.00 40 987.7
20260505072016 61 202 1.0 2.0 0.00 0.00 0.00 40 988.0
20260505071016 61 202 2.0 3.0 0.00 0.00 0.00 40 988.0
20260505070017 60 202 3.0 5.0 0.00 0.00 0.00 40 988.1
20260505065019 60 202 3.0 6.0 0.00 0.00 0.00 39 988.0
20260505064116 60 204 2.0 4.0 0.00 0.00 0.00 40 988.0
20260505063116 60 202 2.0 5.0 0.00 0.00 0.00 38 988.0
20260505062118 60 225 2.0 4.0 0.00 0.00 0.00 39 988.0
20260505061116 60 203 3.0 6.0 0.00 0.00 0.00 39 987.7
20260505060116 60 202 4.0 6.0 0.00 0.00 0.00 39 988.1
20260505055118 59 224 5.0 9.0 0.00 0.00 0.00 39 988.1
20260505054215 60 226 4.0 7.0 0.00 0.00 0.00 38 988.1
20260505053216 60 231 5.0 7.0 0.00 0.00 0.00 38 988.1
20260505052216 60 202 3.0 5.0 0.00 0.00 0.00 38 988.4
20260505051220 61 202 2.0 4.0 0.00 0.00 0.00 38 988.4
20260505050219 61 201 4.0 8.0 0.00 0.00 0.00 38 988.4
20260505041216 65 207 4.0 8.0 0.00 0.00 0.00 42 988.4
20260505034412 63 210 4.0 7.0 0.00 0.00 0.00 44 988.1
20260505033414 63 223 3.0 5.0 0.00 0.00 0.00 43 988.0
20260505032413 62 219 4.0 6.0 0.00 0.00 0.00 44 988.0
20260505031511 63 225 3.0 4.0 0.00 0.00 0.00 44 988.0
20260505030512 62 225 3.0 4.0 0.00 0.00 0.00 45 988.4
20260505025514 62 225 3.0 4.0 0.00 0.00 0.00 42 988.4
20260505024611 62 216 2.0 4.0 0.00 0.00 0.00 45 988.4
20260505024514 62 202 2.0 4.0 0.00 0.00 0.00 45 988.4